Regional Weather Roundup
Issued by NWS Tiyan, Guam

Home | Current Version | Previous Version | Text Only | Print | Product List | Glossary On
Versions: 1 2 3 4 5 6 7 8 9 10 11 12 13 14 15 16 17 18 19 20 21 22 23 24 25 26 27
000
ASGM40 PGUM 180512
RWRGUM
WEATHER ROUNDUP FOR THE MARIANAS
NATIONAL WEATHER SERVICE TIYAN GU
300 PM CHST WED JAN 18 2017

GUZ001>004-180600-
MARIANA ISLANDS-

CITY           SKY/WX    TMP DP  RH WIND       PRES   REMARKS
GUAM AIRPORT   PTSUNNY   81  79  94 NE20G26   29.94F
ANDERSEN AFB   PTSUNNY   79  73  83 E25       29.95F
ROTA AIRPORT   PTSUNNY   79  73  83 NE17G23   29.95F
TINIAN AP      LGT RAIN  82  72  69 NE20      29.95F
SAIPAN AP      CLOUDY    81  72  74 NE18G31   29.97F

$$





USA.gov is the U.S. government's official web portal to all federal, state and local government web resources and services.